Regional Weather Roundup
Issued by NWS Bismarck, ND

Current Version | Previous Version | Text Only | Print | Product List | Glossary On
Versions: 1 2 3 4 5 6 7 8 9 10 11 12 13 14 15 16 17 18 19 20 21 22 23 24 25 26 27 28 29 30 31 32 33 34 35 36 37 38 39 40 41 42 43 44 45 46 47 48 49 50
000
ASUS43 KBIS 270359
RWRBIS

NWR BROADCAST TEXT
NATIONAL WEATHER SERVICE BISMARCK ND
1000 PM CST FRI DEC 26 2014

NOTE: "FAIR" INDICATES FEW OR NO CLOUDS BELOW 12,000 FEET WITH NO
SIGNIFICANT WEATHER AND/OR OBSTRUCTIONS TO VISIBILITY.


CITY           SKY/WX    TMP DP  RH WIND       PRES   REMARKS
WILLISTON      CLOUDY    21  15  78 CALM      30.10F
MINOT          CLOUDY    10   4  76 SE5       30.13F WCI   2
MINOT AFB      NOT AVBL
BISMARCK       CLEAR      2  -1  88 CALM      30.19F
DICKINSON      CLEAR     10   5  80 S6        30.08F WCI   0
GARRISON         N/A     10   7  87 CALM      30.13F
HETTINGER ARPT CLEAR      6   3  87 CALM      30.13S
JAMESTOWN      PTCLDY     3   0  87 CALM      30.18S
CARRINGTON     FAIR       0  -2  92 MISG      30.19S
CROSBY         CLOUDY    18  18 100 S12       30.09F WCI   5
OAKES            N/A      5   5 100 NW5       30.20F WCI  -4
$$

CITY           SKY/WX    TMP DP  RH WIND       PRES   REMARKS
GRAND FORKS    CLOUDY     7   3  84 N9        30.23F WCI  -7
GRAND FORKS AF NOT AVBL
DEVILS LAKE    PTCLDY     0  -8  71 CALM      30.16F
FARGO          MOCLDY    10   4  76 NW9       30.23F WCI  -3
GWINNER        CLEAR      9   5  85 N8        30.21F WCI  -4
$$

CITY           SKY/WX    TMP DP  RH WIND       PRES   REMARKS
ABERDEEN       CLOUDY    13   8  81 N14       30.20F WCI  -2
MOBRIDGE       PTCLDY     3   0  87 CALM      30.16S
BUFFALO          N/A     11   7  84 SW7       30.04S WCI   0
RAPID CITY     CLOUDY    15  12  88 CALM      30.12S
GLASGOW        CLEAR     16  12  84 W5        30.12S WCI   9
SIDNEY         CLOUDY    25  18  74 S8        30.12F WCI  16
WOLF POINT     CLOUDY    20  16  84 W3        30.13S
GLENDIVE       CLOUDY    25  19  80 W6        30.11S WCI  18
MILES CITY     CLOUDY    23  19  85 W8        30.13R WCI  14
BAKER          CLOUDY    16  11  80 CALM      30.09F
$$

CITY           SKY/WX    TMP DP  RH WIND       PRES   REMARKS
BILLINGS       CLEAR     18  14  84 SW7       30.12S WCI   9
GREAT FALLS    CLEAR     15   9  76 S13       30.06F WCI   1
$$




USA.gov is the U.S. government's official web portal to all federal, state and local government web resources and services.